Le nostre stazioni meteo in Italia

Pubblicità
Il mio iltempo24.it
Besancon, Francia (7288): Temperatura & dewpoint: 19.05.2019 08:00:00 - 25.05.2019 08:00:00 (CEST)Besancon, Francia (7288): Temperatura 5cm: 19.05.2019 08:00:00 - 25.05.2019 08:00:00 (CEST)Besancon, Francia (7288): Temperatura -20cm & Temperatura -100cm: 19.05.2019 08:00:00 - 25.05.2019 08:00:00 (CEST)Besancon, Francia (7288): velocità del vento & gusts: 19.05.2019 08:00:00 - 25.05.2019 08:00:00 (CEST)Besancon, Francia (7288): direzione del vento: 19.05.2019 08:00:00 - 25.05.2019 08:00:00 (CEST)Besancon, Francia (7288): reduced air pressure: 19.05.2019 08:00:00 - 25.05.2019 08:00:00 (CEST)Besancon, Francia (7288): ore di luce: 19.05.2019 08:00:00 - 25.05.2019 08:00:00 (CEST)Besancon, Francia (7288): precipitazioni: 19.05.2019 08:00:00 - 25.05.2019 08:00:00 (CEST)
Data & Tempo tt [°C] td [°C] tt 5cm [°C] tt -20cm [°C] tt -100cm [°C] ff [km/h] ff [kn] fx [km/h] fx [kn] dd ppp [hPa] sd [min] rr [mm]
25.05.2019 08:00:00 - - - - - - - - - - - - -
25.05.2019 07:00:00 10,3 9,1 5,1 16,6 12,9 0 0 4 2 N 1016,3 15 0,0
25.05.2019 06:00:00 10,2 8,6 4,9 16,7 12,9 0 0 3 2 N 1016,1 0 0,0
25.05.2019 05:00:00 11,5 9,1 5,9 16,8 12,9 0 0 3 2 N 1015,5 0 0,0
25.05.2019 04:00:00 13,2 8,9 7,8 16,9 12,9 0 0 7 4 N 1015,2 0 0,0
25.05.2019 03:00:00 14,2 8,2 8,7 16,9 12,9 2 1 6 4 N 1015,0 0 0,0
25.05.2019 02:00:00 14,6 8,1 8,2 17,0 12,8 0 0 9 5 N 1015,1 0 0,0
25.05.2019 01:00:00 15,7 8,0 9,4 17,0 12,8 0 0 10 5 N 1015,0 0 0,0
25.05.2019 00:00:00 17,3 8,4 13,2 17,0 12,8 8 4 24 13 NNE 1014,7 0 0,0
24.05.2019 23:00:00 17,6 8,7 11,1 17,0 12,8 11 6 17 9 N 1014,5 0 0,0
24.05.2019 22:00:00 17,0 8,9 11,3 17,0 12,8 2 1 4 2 NNE 1014,0 0 0,0
24.05.2019 21:00:00 19,3 8,3 13,5 16,9 12,8 4 2 12 6 N 1013,4 0 0,0
24.05.2019 20:00:00 21,2 6,7 19,3 16,8 12,8 9 5 26 14 N 1012,9 53 0,0
24.05.2019 19:00:00 22,1 7,1 23,6 16,6 12,8 10 5 22 12 N 1012,6 60 0,0
24.05.2019 18:00:00 22,7 6,9 25,8 16,5 12,8 9 5 29 16 N 1012,6 53 0,0
24.05.2019 17:00:00 22,8 7,7 32,2 16,3 12,8 11 6 24 13 N 1013,0 58 0,0
24.05.2019 16:00:00 22,8 8,1 37,2 16,0 12,8 10 5 22 12 N 1013,3 60 0,0
24.05.2019 15:00:00 22,9 7,8 37,4 15,8 12,8 5 3 24 13 NNE 1013,6 60 0,0
24.05.2019 14:00:00 22,3 7,7 31,2 15,6 12,8 8 4 25 14 NNO 1014,0 55 0,0
24.05.2019 13:00:00 21,9 8,7 33,7 15,4 12,7 10 5 28 15 NNO 1014,3 60 0,0
24.05.2019 12:00:00 20,9 10,7 30,8 15,4 12,7 10 5 25 13 N 1014,7 60 0,0
24.05.2019 11:00:00 20,2 9,4 27,5 15,4 12,7 4 2 10 5 NNO 1014,8 60 0,0
24.05.2019 10:00:00 17,9 8,7 23,8 15,5 12,7 3 2 11 6 SO 1015,3 57 0,0
24.05.2019 09:00:00 16,6 7,8 11,4 15,5 12,7 0 0 4 2 N 1015,2 60 0,0
24.05.2019 08:00:00 11,8 8,6 8,0 15,6 12,7 0 0 3 2 N 1015,6 48 0,0
24.05.2019 07:00:00 10,1 8,0 5,2 15,7 12,7 0 0 3 2 N 1015,8 7 0,0
24.05.2019 06:00:00 9,9 7,7 5,1 15,8 12,7 0 0 4 2 N 1015,5 0 0,0
24.05.2019 05:00:00 10,8 7,8 5,3 15,9 12,7 0 0 5 3 N 1015,3 0 0,0
24.05.2019 04:00:00 11,7 8,2 7,1 15,9 12,7 0 0 5 3 N 1015,2 0 0,0
24.05.2019 03:00:00 12,3 8,4 8,4 16,0 12,7 0 0 4 2 N 1015,5 0 0,0
24.05.2019 02:00:00 12,9 8,2 8,2 16,0 12,7 0 0 3 2 N 1015,5 0 0,0
24.05.2019 01:00:00 14,0 8,2 8,8 16,1 12,7 0 0 3 2 N 1015,6 0 0,0
24.05.2019 00:00:00 14,1 8,1 7,9 16,1 12,7 0 0 2 1 N 1015,9 0 0,0
23.05.2019 23:00:00 14,4 7,4 7,8 16,1 12,7 0 0 5 3 N 1016,2 0 0,0
23.05.2019 22:00:00 16,4 7,6 10,4 16,0 12,7 3 1 11 6 NE 1015,8 0 0,0
23.05.2019 21:00:00 18,4 6,6 11,2 16,0 12,7 6 3 13 7 NNO 1015,2 2 0,0
23.05.2019 20:00:00 21,3 3,5 19,0 15,8 12,7 7 4 16 9 NNE 1014,5 48 0,0
23.05.2019 19:00:00 22,4 3,5 26,1 15,6 12,7 6 3 15 8 N 1014,6 60 0,0
23.05.2019 18:00:00 22,3 3,4 30,3 15,4 12,7 6 4 18 10 N 1014,9 60 0,0
23.05.2019 17:00:00 22,2 6,0 32,3 15,2 12,7 9 5 24 13 N 1015,2 60 0,0
23.05.2019 16:00:00 21,9 6,9 36,2 15,0 12,6 8 5 23 12 NNO 1015,5 60 0,0
23.05.2019 15:00:00 21,4 7,6 35,9 14,8 12,6 11 6 27 14 N 1016,2 60 0,0
23.05.2019 14:00:00 20,6 6,9 34,8 14,5 12,6 11 6 24 13 NNE 1016,5 60 0,0
23.05.2019 13:00:00 20,2 7,9 31,2 14,5 12,6 11 6 22 12 N 1017,1 60 0,0
23.05.2019 12:00:00 19,8 7,8 29,3 14,4 12,6 9 5 23 12 NNE 1017,5 60 0,0
23.05.2019 11:00:00 18,4 7,8 26,3 14,4 12,6 7 4 19 10 NNE 1017,9 60 0,0
23.05.2019 10:00:00 17,0 6,2 21,3 14,5 12,6 7 4 19 10 NNE 1018,2 60 0,0
23.05.2019 09:00:00 14,5 6,8 8,4 14,6 12,6 5 3 11 6 NNE 1018,6 60 0,0
23.05.2019 08:00:00 9,9 6,4 3,9 14,7 12,6 0 0 6 3 N 1019,3 60 0,0
23.05.2019 07:00:00 7,2 5,3 1,6 14,8 12,6 0 0 0 0 N 1019,5 14 0,0
23.05.2019 06:00:00 7,0 5,1 1,2 14,9 12,6 0 0 4 2 N 1019,5 0 0,0
23.05.2019 05:00:00 6,9 5,0 1,3 15,1 12,7 0 0 4 2 N 1019,9 0 0,0
23.05.2019 04:00:00 7,7 5,3 1,7 15,2 12,6 0 0 3 1 N 1020,1 0 0,0
23.05.2019 03:00:00 7,7 4,8 2,0 15,3 12,6 0 0 0 0 N 1020,2 0 0,0
23.05.2019 02:00:00 8,1 5,2 2,1 15,3 12,6 0 0 0 0 N 1020,4 0 0,0
23.05.2019 01:00:00 9,4 5,6 2,9 15,4 12,6 0 0 3 2 N 1020,3 0 0,0
23.05.2019 00:00:00 9,8 5,2 3,2 15,4 12,6 0 0 4 2 N 1020,2 0 0,0
22.05.2019 23:00:00 11,3 5,8 4,1 15,4 12,6 4 2 5 3 NNE 1020,3 0 0,0
22.05.2019 22:00:00 13,2 5,4 5,4 15,4 12,6 2 1 5 3 NE 1019,9 0 0,0
22.05.2019 21:00:00 16,3 4,6 9,5 15,3 12,6 2 1 17 9 N 1019,1 29 0,0
22.05.2019 20:00:00 18,6 4,0 17,9 15,2 12,6 9 5 19 11 N 1018,8 48 0,0
22.05.2019 19:00:00 19,2 2,1 22,4 15,0 12,6 8 4 21 12 N 1018,6 60 0,0
22.05.2019 18:00:00 19,6 3,7 26,9 14,8 12,6 9 5 24 13 NNE 1018,7 58 0,0
22.05.2019 17:00:00 19,7 4,2 31,2 14,6 12,6 5 3 22 12 NNO 1018,7 60 0,0
22.05.2019 16:00:00 19,5 2,8 22,9 14,4 12,6 4 2 21 11 N 1018,9 51 0,0
22.05.2019 15:00:00 18,7 3,7 35,7 14,2 12,6 10 6 23 12 NNO 1019,2 60 0,0
22.05.2019 14:00:00 18,0 3,8 29,7 14,0 12,6 10 6 30 16 NNO 1019,5 55 0,0
22.05.2019 13:00:00 17,8 6,0 25,7 13,9 12,6 9 5 30 16 NNO 1019,7 47 0,0
22.05.2019 12:00:00 17,1 6,6 26,8 13,8 12,6 11 6 27 14 N 1019,8 60 0,0
22.05.2019 11:00:00 17,1 5,4 26,3 13,8 12,6 9 5 22 12 NNE 1019,7 60 0,0
22.05.2019 10:00:00 16,1 8,6 20,7 13,8 12,6 3 2 11 6 N 1019,6 60 0,0
22.05.2019 09:00:00 13,6 9,0 9,8 13,9 12,6 2 1 14 8 NNE 1019,9 60 0,0
22.05.2019 08:00:00 9,3 8,8 5,5 14,1 12,6 0 0 3 2 N 1020,2 60 0,0
22.05.2019 07:00:00 7,4 6,8 2,4 14,2 12,6 0 0 6 3 N 1020,2 33 0,0
22.05.2019 06:00:00 7,0 6,4 1,7 14,3 12,6 0 0 4 2 N 1019,8 0 0,0
22.05.2019 05:00:00 6,7 6,0 2,1 14,4 12,6 2 1 4 2 NNE 1019,6 0 0,0
22.05.2019 04:00:00 7,3 6,4 2,4 14,5 12,6 0 0 3 2 N 1019,4 0 0,0
22.05.2019 03:00:00 8,1 7,0 2,9 14,5 12,6 0 0 2 1 N 1019,1 0 0,0
22.05.2019 02:00:00 8,8 7,1 3,6 14,6 12,6 0 0 3 1 N 1018,9 0 0,0
22.05.2019 01:00:00 10,5 7,7 4,7 14,7 12,6 0 0 3 1 N 1018,7 0 0,0
22.05.2019 00:00:00 12,2 7,5 6,2 14,7 12,6 0 0 7 4 N 1018,5 0 0,0
21.05.2019 23:00:00 12,5 7,4 5,7 14,7 12,6 4 2 10 6 N 1018,2 0 0,0
21.05.2019 22:00:00 13,8 6,9 7,7 14,7 12,6 5 3 16 9 NNE 1017,8 0 0,0
21.05.2019 21:00:00 16,5 7,4 11,7 14,6 12,6 5 3 14 7 NNO 1016,6 42 0,0
21.05.2019 20:00:00 17,3 7,6 15,2 14,5 12,6 5 3 11 6 NNO 1016,0 0 0,0
21.05.2019 19:00:00 17,9 7,9 18,9 14,5 12,6 4 2 10 6 ONO 1015,7 0 0,0
21.05.2019 18:00:00 17,7 8,0 17,9 14,4 12,6 5 3 18 10 ONO 1015,7 0 0,0
21.05.2019 17:00:00 18,0 8,3 19,8 14,3 12,6 6 4 22 12 NO 1015,5 12 0,0
21.05.2019 16:00:00 17,9 7,9 20,6 14,1 12,6 10 5 24 13 NO 1015,4 9 0,0
21.05.2019 15:00:00 17,8 9,2 21,9 14,0 12,6 5 3 19 10 OSO 1015,4 15 0,0
21.05.2019 14:00:00 16,4 10,0 19,8 14,0 12,6 6 3 17 9 OSO 1015,6 1 0,0
21.05.2019 13:00:00 15,3 9,9 16,5 13,9 12,6 6 3 18 10 SO 1015,8 2 0,0
21.05.2019 12:00:00 14,2 9,8 15,6 13,9 12,6 7 4 17 9 SO 1015,8 2 0,0
21.05.2019 11:00:00 12,8 10,2 13,0 13,9 12,6 5 3 12 7 SO 1016,0 0 0,2
21.05.2019 10:00:00 11,5 10,1 11,4 14,0 12,6 6 3 15 8 SO 1015,9 0 0,0
21.05.2019 09:00:00 10,7 9,9 10,7 14,0 12,6 4 2 10 5 OSO 1015,7 0 0,0
21.05.2019 08:00:00 10,5 9,6 10,5 14,1 12,6 4 2 8 4 O 1015,2 0 0,0
21.05.2019 07:00:00 10,7 9,5 10,4 14,1 12,6 0 0 14 7 N 1014,6 0 0,0
21.05.2019 06:00:00 11,0 10,1 10,7 14,1 12,5 4 2 11 6 ONO 1014,3 0 0,0
21.05.2019 05:00:00 11,1 10,5 10,9 14,2 12,6 4 2 9 5 OSO 1014,0 0 0,0
21.05.2019 04:00:00 11,1 10,5 10,9 14,2 12,6 4 2 14 7 O 1014,1 0 0,2
21.05.2019 03:00:00 11,1 10,5 10,9 14,3 12,6 5 3 12 6 OSO 1013,7 0 0,0
21.05.2019 02:00:00 11,1 10,3 10,9 14,3 12,5 4 2 12 6 SO 1013,9 0 0,2
21.05.2019 01:00:00 11,2 10,4 10,8 14,3 12,5 5 3 13 7 SSO 1013,8 0 0,0
21.05.2019 00:00:00 11,2 10,4 10,8 14,4 12,5 3 2 9 5 SSO 1013,9 0 0,0
20.05.2019 23:00:00 11,2 10,4 11,0 14,4 12,5 3 2 11 6 OSO 1013,5 0 0,0
20.05.2019 22:00:00 11,4 10,5 11,1 14,4 12,5 4 2 11 6 SO 1013,0 0 0,0
20.05.2019 21:00:00 11,7 10,4 11,3 14,4 12,5 5 3 15 8 OSO 1012,3 0 0,0
20.05.2019 20:00:00 12,2 10,4 11,8 14,5 12,5 6 3 18 10 O 1011,9 0 0,0
20.05.2019 19:00:00 12,8 10,5 12,7 14,5 12,5 6 3 18 10 ONO 1011,2 0 0,0
20.05.2019 18:00:00 13,0 10,7 13,0 14,5 12,5 8 4 18 10 NO 1010,8 0 0,0
20.05.2019 17:00:00 13,3 11,4 12,9 14,5 12,5 7 4 14 8 O 1010,3 0 0,0
20.05.2019 16:00:00 13,2 11,3 13,3 14,5 12,5 4 2 15 8 OSO 1010,1 0 0,2
20.05.2019 15:00:00 12,8 11,2 12,8 14,5 12,5 7 4 16 9 OSO 1010,1 0 0,0
20.05.2019 14:00:00 12,7 11,4 13,3 14,5 12,5 5 3 13 7 O 1009,7 0 0,0
20.05.2019 13:00:00 12,4 11,0 12,4 14,5 12,5 7 4 16 9 O 1009,5 0 0,0
20.05.2019 12:00:00 12,2 10,8 12,2 14,6 12,5 8 4 18 10 O 1009,1 0 0,0
20.05.2019 11:00:00 12,1 10,8 12,2 14,6 12,5 8 4 15 8 OSO 1008,9 0 0,0
20.05.2019 10:00:00 11,9 10,8 12,0 14,6 12,5 5 3 14 8 O 1008,4 0 0,2
20.05.2019 09:00:00 11,7 10,8 11,8 14,6 12,5 5 3 14 7 OSO 1008,2 0 0,0
20.05.2019 08:00:00 11,7 10,9 11,3 14,7 12,5 4 2 11 6 OSO 1007,7 0 0,0
20.05.2019 07:00:00 11,5 10,6 11,2 14,7 12,5 4 2 9 5 SO 1007,6 0 0,0
20.05.2019 06:00:00 11,5 10,6 11,1 14,8 12,5 2 1 6 3 SO 1007,3 0 0,0
20.05.2019 05:00:00 11,5 10,6 11,2 14,8 12,5 3 1 10 5 OSO 1006,9 0 0,0
20.05.2019 04:00:00 11,7 10,8 11,3 14,9 12,5 5 3 11 6 O 1007,0 0 0,0
20.05.2019 03:00:00 11,8 10,9 11,4 14,9 12,5 3 2 7 4 OSO 1007,0 0 0,0
20.05.2019 02:00:00 11,9 11,0 10,2 15,0 12,5 2 1 5 3 O 1007,2 0 0,0
20.05.2019 01:00:00 12,0 10,7 10,6 15,0 12,5 0 0 6 3 N 1007,2 0 0,0
20.05.2019 00:00:00 12,3 11,0 11,5 15,0 12,5 0 0 6 3 N 1007,1 0 0,2
19.05.2019 23:00:00 12,7 11,4 11,6 15,0 12,4 2 1 4 2 N 1006,9 0 0,0
19.05.2019 22:00:00 13,0 11,4 11,6 15,0 12,4 0 0 12 7 N 1006,5 0 0,0
19.05.2019 21:00:00 14,3 11,6 13,3 14,9 12,4 0 0 5 3 N 1006,0 0 0,0
19.05.2019 20:00:00 15,0 11,2 15,2 14,9 12,4 3 1 9 5 OSO 1005,5 0 0,0
19.05.2019 19:00:00 15,5 11,3 18,1 14,8 12,4 4 2 14 8 O 1005,4 0 0,0
19.05.2019 18:00:00 15,2 10,8 18,6 14,8 12,4 6 3 14 8 N 1005,3 0 0,0
19.05.2019 17:00:00 14,9 10,7 17,2 14,7 12,4 5 3 15 8 NNO 1005,5 0 0,0
19.05.2019 16:00:00 14,6 11,0 16,3 14,7 12,4 5 3 15 8 NO 1005,5 0 0,0
19.05.2019 15:00:00 14,8 10,8 15,3 14,7 12,4 7 4 15 8 O 1005,7 0 0,0
19.05.2019 14:00:00 13,5 10,8 14,7 14,7 12,4 5 3 18 10 ONO 1006,1 0 0,0
19.05.2019 13:00:00 14,2 11,0 17,4 14,6 12,4 5 3 15 8 NO 1005,9 0 0,0
19.05.2019 12:00:00 13,5 11,0 16,5 14,6 12,4 4 2 14 8 O 1006,2 5 0,0
19.05.2019 11:00:00 13,2 10,9 14,5 14,6 12,4 4 2 9 5 O 1006,2 0 0,0
19.05.2019 10:00:00 12,1 10,7 12,4 14,6 12,3 4 2 9 5 O 1006,3 0 0,0
19.05.2019 09:00:00 11,2 10,3 11,6 14,7 12,4 3 2 10 5 OSO 1006,5 0 0,0
19.05.2019 08:00:00 10,9 10,0 11,2 14,8 12,4 3 1 12 6 O 1006,4 0 0,0

tt = Temperatura
td = dewpoint
tt 5cm = Temperatura 5cm
tt -20cm = Temperatura -20cm
tt -100cm = Temperatura -100cm
ff = velocità del vento
fx = gusts
dd = direzione del vento
ppp = reduced air pressure
sd = ore di luce
rr = precipitazioni

Stazioni seguenti

WeatherPro
AMSI
MeteoEarth